This is the latest recevied weather packets stored in our database for station/object NE8U. If no packets are shown the sender has not sent any weather packets the latest 10 day(s).
| Time | Temp. | Humidity | Pressure | Rain* | Wind** | Luminosity | Snow |
|---|---|---|---|---|---|---|---|
| 1777673852 | 30° C | 20% | 1012.1 hPa | 0 mm | - | 585 W/m² | - |
| 1777673549 | 30° C | 20% | 1012.1 hPa | 0 mm | - | 598 W/m² | - |
| 1777673247 | 30° C | 20% | 1012.2 hPa | 0 mm | - | 621 W/m² | - |
| 1777672944 | 30° C | 21% | 1012.3 hPa | 0 mm | - | 632 W/m² | - |
| 1777672641 | 30.56° C | 21% | 1012.4 hPa | 0 mm | - | 639 W/m² | - |
| 1777672336 | 30.56° C | 20% | 1012.3 hPa | 0 mm | - | 655 W/m² | - |
| 1777672031 | 29.44° C | 20% | 1012.5 hPa | 0 mm | - | 665 W/m² | - |
| 1777671728 | 30° C | 19% | 1012.5 hPa | 0 mm | - | 671 W/m² | - |
| 1777671424 | 30° C | 20% | 1012.6 hPa | 0 mm | - | 659 W/m² | - |
| 1777671120 | 30° C | 20% | 1012.8 hPa | 0 mm | - | 661 W/m² | - |
| 1777670816 | 29.44° C | 21% | 1012.7 hPa | 0 mm | - | 647 W/m² | - |
| 1777670513 | 30° C | 21% | 1012.7 hPa | 0 mm | - | 686 W/m² | - |
| 1777670210 | 29.44° C | 19% | 1012.9 hPa | 0 mm | - | 717 W/m² | - |
| 1777669907 | 30° C | 20% | 1013 hPa | 0 mm | - | 718 W/m² | - |
| 1777669604 | 29.44° C | 20% | 1013 hPa | 0 mm | - | 721 W/m² | - |
| 1777669301 | 30° C | 19% | 1013.1 hPa | 0 mm | - | 734 W/m² | - |
| 1777668997 | 28.89° C | 20% | 1013.1 hPa | 0 mm | - | 756 W/m² | - |
| 1777668695 | 28.89° C | 20% | 1013.4 hPa | 0 mm | - | 766 W/m² | - |
| 1777668391 | 29.44° C | 20% | 1013.1 hPa | 0 mm | - | 782 W/m² | - |
| 1777668087 | 29.44° C | 21% | 1013.1 hPa | 0 mm | - | 793 W/m² | - |
| 1777667784 | 29.44° C | 21% | 1013.4 hPa | 0 mm | - | 799 W/m² | - |
| 1777667481 | 28.89° C | 20% | 1013.4 hPa | 0 mm | - | 803 W/m² | - |
| 1777667179 | 28.33° C | 22% | 1013.5 hPa | 0 mm | - | 797 W/m² | - |
| 1777666875 | 28.89° C | 19% | 1013.4 hPa | 0 mm | - | 797 W/m² | - |
| 1777666572 | 28.33° C | 22% | 1013.7 hPa | 0 mm | - | 790 W/m² | - |
* Rain latest hour (hover to see other rain measurements)
** Current wind speed in m/s (hover to see current wind gust speed)